QPF
0.00 0.00 0.00 0.00 0.00 0.00 0.00 0.00 0.00 0.00 0.00 0.00 0.00 0.01 0.01 0.01 0.01 0.01 0.01 0.01 0.02 0.02 0.02 0.01 0.01 0.02 0.01 0.02 0.01 0.01 0.01 0.02 0.02 0.03 0.03 0.02 0.02 0.02 0.02 0.02 0.02 0.03 0.05 0.06
0.00 0.00 0.00 0.00 0.00 0.00 0.00 0.00 0.00 0.00 0.00 0.00 0.00 0.00 0.01 0.01 0.01 0.01 0.01 0.01 0.01 0.01 0.01 0.01 0.01 0.00 0.01 0.01 0.01 0.01 0.02 0.02 0.03 0.04 0.03 0.02 0.03 0.04 0.03 0.02 0.03 0.03 0.03 0.04
0.00 0.00 0.00 0.00 0.00 0.00 0.00 0.00 0.00 0.00 0.00 0.00 0.00 0.00 0.01 0.01 0.01 0.02 0.02 0.01 0.01 0.00 0.00 0.01 0.01 0.00 0.01 0.01 0.01 0.02 0.01 0.02 0.02 0.02 0.01 0.01 0.02 0.03 0.03 0.04 0.04 0.04 0.03 0.03
0.00 0.00 0.00 0.00 0.00 0.00 0.00 0.00 0.00 0.00 0.00 0.00 0.00 0.00 0.01 0.02 0.02 0.02 0.02 0.01 0.01 0.00 0.00 0.01 0.01 0.01 0.00 0.01 0.01 0.01 0.01 0.01 0.01 0.01 0.01 0.01 0.02 0.02 0.03 0.04 0.05 0.04 0.03 0.03
0.00 0.00 0.00 0.00 0.00 0.00 0.00 0.00 0.00 0.00 0.00 0.00 0.00 0.01 0.01 0.02 0.02 0.02 0.01 0.01 0.01 0.01 0.01 0.00 0.01 0.01 0.01 0.00 0.00 0.01 0.01 0.01 0.01 0.01 0.01 0.02 0.02 0.03 0.03 0.04 0.04 0.04 0.04 0.04
0.00 0.00 0.00 0.00 0.00 0.00 0.00 0.00 0.00 0.00 0.00 0.00 0.01 0.01 0.01 0.02 0.02 0.02 0.01 0.01 0.01 0.02 0.02 0.01 0.02 0.01 0.01 0.01 0.01 0.01 0.01 0.01 0.01 0.01 0.02 0.02 0.03 0.03 0.04 0.05 0.04 0.04 0.05 0.05
0.00 0.00 0.00 0.00 0.00 0.00 0.00 0.00 0.00 0.00 0.00 0.01 0.01 0.01 0.01 0.02 0.02 0.02 0.02 0.02 0.02 0.01 0.01 0.01 0.02 0.02 0.02 0.01 0.01 0.01 0.01 0.01 0.02 0.02 0.03 0.04 0.05 0.05 0.06 0.07 0.06 0.05 0.05 0.04
0.00 0.00 0.00 0.00 0.00 0.00 0.00 0.00 0.00 0.00 0.01 0.01 0.01 0.01 0.01 0.02 0.02 0.03 0.03 0.03 0.02 0.01 0.01 0.01 0.01 0.01 0.02 0.01 0.02 0.03 0.03 0.04 0.04 0.04 0.05 0.06 0.06 0.07 0.07 0.07 0.06 0.04 0.02 0.01
0.00 0.00 0.00 0.00 0.00 0.00 0.00 0.00 0.00 0.01 0.01 0.01 0.01 0.01 0.01 0.01 0.02 0.02 0.02 0.02 0.01 0.02 0.02 0.03 0.04 0.04 0.04 0.04 0.04 0.04 0.05 0.06 0.06 0.06 0.06 0.06 0.06 0.06 0.06 0.05 0.03 0.02 0.01 0.01
0.01 0.01 0.01 0.01 0.01 0.01 0.01 0.01 0.01 0.01 0.01 0.02 0.02 0.02 0.02 0.02 0.02 0.02 0.02 0.02 0.02 0.03 0.04 0.04 0.05 0.07 0.08 0.07 0.06 0.06 0.06 0.05 0.05 0.05 0.05 0.05 0.05 0.04 0.03 0.03 0.02 0.01 0.01 0.01
0.01 0.01 0.01 0.01 0.02 0.02 0.01 0.01 0.02 0.02 0.02 0.02 0.02 0.02 0.02 0.02 0.02 0.02 0.03 0.04 0.05 0.05 0.06 0.06 0.06 0.06 0.06 0.06 0.06 0.06 0.06 0.06 0.06 0.05 0.05 0.05 0.04 0.04 0.04 0.03 0.02 0.02 0.01 0.01
0.01 0.01 0.01 0.01 0.01 0.01 0.02 0.02 0.02 0.02 0.03 0.03 0.02 0.02 0.02 0.03 0.03 0.03 0.03 0.04 0.06 0.07 0.06 0.05 0.04 0.05 0.05 0.08 0.10 0.09 0.08 0.06 0.05 0.05 0.04 0.06 0.06 0.06 0.05 0.04 0.03 0.02 0.02 0.01
0.01 0.01 0.01 0.01 0.01 0.01 0.01 0.01 0.02 0.02 0.03 0.04 0.04 0.04 0.05 0.04 0.04 0.04 0.05 0.07 0.08 0.07 0.05 0.04 0.04 0.05 0.06 0.09 0.13 0.09 0.07 0.06 0.05 0.05 0.06 0.07 0.08 0.08 0.08 0.07 0.05 0.03 0.02 0.02
0.01 0.02 0.02 0.01 0.01 0.01 0.01 0.01 0.01 0.02 0.04 0.05 0.05 0.06 0.09 0.10 0.06 0.04 0.05 0.05 0.05 0.04 0.04 0.04 0.04 0.04 0.06 0.09 0.10 0.08 0.06 0.06 0.07 0.06 0.06 0.07 0.06 0.07 0.08 0.06 0.05 0.04 0.04 0.04
0.02 0.02 0.02 0.01 0.01 0.01 0.01 0.01 0.02 0.02 0.03 0.04 0.05 0.05 0.05 0.06 0.05 0.04 0.03 0.02 0.02 0.02 0.02 0.02 0.03 0.04 0.04 0.04 0.04 0.04 0.04 0.07 0.11 0.11 0.11 0.10 0.08 0.08 0.08 0.08 0.07 0.06 0.05 0.04
0.02 0.02 0.01 0.01 0.01 0.01 0.02 0.02 0.02 0.03 0.03 0.04 0.04 0.04 0.05 0.05 0.05 0.04 0.02 0.02 0.01 0.01 0.01 0.02 0.02 0.02 0.02 0.02 0.02 0.03 0.04 0.06 0.08 0.12 0.13 0.11 0.10 0.10 0.13 0.13 0.11 0.11 0.08 0.05
0.02 0.02 0.01 0.01 0.01 0.01 0.02 0.03 0.03 0.03 0.03 0.03 0.03 0.02 0.04 0.05 0.06 0.06 0.03 0.02 0.01 0.01 0.02 0.02 0.03 0.03 0.03 0.03 0.03 0.04 0.04 0.05 0.05 0.05 0.06 0.08 0.09 0.08 0.09 0.11 0.11 0.10 0.07 0.05
0.04 0.02 0.01 0.01 0.01 0.01 0.01 0.01 0.02 0.02 0.02 0.02 0.01 0.02 0.02 0.03 0.03 0.04 0.03 0.02 0.01 0.01 0.01 0.02 0.02 0.02 0.02 0.03 0.03 0.04 0.04 0.03 0.03 0.02 0.03 0.04 0.06 0.07 0.06 0.05 0.04 0.04 0.03 0.02
0.02 0.02 0.02 0.02 0.01 0.01 0.01 0.01 0.01 0.01 0.01 0.01 0.01 0.01 0.01 0.02 0.02 0.02 0.03 0.02 0.01 0.01 0.02 0.02 0.03 0.03 0.03 0.04 0.03 0.03 0.02 0.02 0.02 0.02 0.01 0.02 0.01 0.01 0.01 0.01 0.01 0.01 0.01 0.00
0.02 0.01 0.01 0.01 0.01 0.01 0.01 0.01 0.01 0.01 0.01 0.01 0.01 0.01 0.01 0.01 0.01 0.02 0.03 0.02 0.01 0.02 0.02 0.03 0.03 0.02 0.03 0.03 0.04 0.02 0.02 0.02 0.02 0.01 0.01 0.01 0.01 0.01 0.01 0.00 0.00 0.00 0.00 0.00
0.01 0.01 0.01 0.01 0.01 0.01 0.02 0.02 0.02 0.01 0.01 0.01 0.01 0.01 0.01 0.01 0.01 0.02 0.03 0.03 0.02 0.02 0.02 0.02 0.03 0.02 0.02 0.02 0.03 0.02 0.02 0.01 0.01 0.01 0.02 0.02 0.02 0.01 0.01 0.00 0.01 0.01 0.01 0.01
0.01 0.01 0.01 0.01 0.01 0.01 0.01 0.02 0.02 0.02 0.01 0.01 0.01 0.01 0.01 0.01 0.01 0.02 0.02 0.02 0.01 0.02 0.02 0.02 0.02 0.03 0.02 0.02 0.02 0.02 0.02 0.03 0.02 0.02 0.02 0.02 0.02 0.02 0.01 0.01 0.01 0.01 0.01 0.01
0.02 0.01 0.01 0.01 0.01 0.01 0.01 0.02 0.02 0.01 0.01 0.01 0.01 0.01 0.01 0.01 0.01 0.01 0.01 0.01 0.01 0.01 0.01 0.01 0.02 0.02 0.03 0.02 0.02 0.02 0.02 0.02 0.02 0.02 0.02 0.02 0.02 0.01 0.01 0.01 0.01 0.01 0.01 0.01
0.02 0.02 0.02 0.02 0.02 0.02 0.02 0.02 0.02 0.01 0.00 0.01 0.01 0.01 0.01 0.01 0.01 0.01 0.01 0.01 0.01 0.01 0.01 0.01 0.02 0.02 0.02 0.02 0.02 0.02 0.01 0.01 0.02 0.01 0.01 0.01 0.01 0.01 0.01 0.01 0.01 0.01 0.01 0.01
0.03 0.03 0.03 0.02 0.02 0.02 0.02 0.02 0.01 0.01 0.01 0.01 0.02 0.02 0.02 0.02 0.01 0.01 0.01 0.01 0.01 0.01 0.01 0.01 0.01 0.01 0.02 0.02 0.02 0.02 0.02 0.02 0.02 0.02 0.02 0.01 0.01 0.00 0.00 0.00 0.01 0.01 0.01 0.01
0.05 0.04 0.03 0.02 0.02 0.02 0.02 0.02 0.01 0.01 0.01 0.01 0.01 0.02 0.02 0.01 0.01 0.01 0.01 0.01 0.01 0.01 0.01 0.01 0.01 0.01 0.01 0.01 0.02 0.02 0.02 0.02 0.01 0.01 0.02 0.01 0.01 0.01 0.01 0.01 0.01 0.01 0.01 0.01
0.03 0.03 0.03 0.03 0.02 0.01 0.01 0.02 0.01 0.01 0.01 0.01 0.01 0.01 0.02 0.02 0.01 0.01 0.01 0.01 0.01 0.01 0.01 0.01 0.01 0.01 0.01 0.01 0.01 0.01 0.02 0.02 0.01 0.02 0.02 0.01 0.01 0.01 0.01 0.01 0.01 0.01 0.01 0.01
MSLP
1011.77 1012.35 1012.93 1013.47 1013.93 1014.25 1014.37 1014.22 1013.79 1013.05 1012.05 1010.85 1009.54 1008.23 1007.03 1006.01 1005.22 1004.68 1004.37 1004.24 1004.25 1004.34 1004.47 1004.63 1004.83 1005.08 1005.42 1005.87 1006.45 1007.14 1007.91 1008.71 1009.48 1010.16 1010.71 1011.09 1011.32 1011.42 1011.43 1011.39 1011.37 1011.38 1011.45 1011.58
1012.06 1012.54 1012.92 1013.20 1013.35 1013.35 1013.18 1012.82 1012.28 1011.55 1010.67 1009.69 1008.66 1007.66 1006.75 1005.96 1005.33 1004.87 1004.54 1004.34 1004.23 1004.18 1004.18 1004.23 1004.35 1004.57 1004.91 1005.39 1005.99 1006.71 1007.49 1008.29 1009.04 1009.70 1010.22 1010.58 1010.79 1010.88 1010.88 1010.84 1010.81 1010.81 1010.87 1010.97
1012.46 1012.78 1012.94 1012.93 1012.77 1012.46 1012.02 1011.47 1010.83 1010.11 1009.35 1008.58 1007.83 1007.12 1006.48 1005.93 1005.46 1005.07 1004.76 1004.51 1004.30 1004.14 1004.04 1004.01 1004.08 1004.26 1004.59 1005.06 1005.66 1006.36 1007.12 1007.88 1008.59 1009.19 1009.67 1009.99 1010.18 1010.26 1010.26 1010.23 1010.21 1010.22 1010.27 1010.37
1012.88 1013.01 1012.93 1012.64 1012.18 1011.59 1010.91 1010.20 1009.48 1008.80 1008.16 1007.58 1007.08 1006.63 1006.25 1005.91 1005.60 1005.32 1005.04 1004.77 1004.52 1004.29 1004.13 1004.04 1004.07 1004.23 1004.53 1004.98 1005.55 1006.20 1006.90 1007.58 1008.21 1008.74 1009.15 1009.43 1009.59 1009.66 1009.68 1009.67 1009.67 1009.69 1009.75 1009.84
1013.20 1013.13 1012.80 1012.25 1011.54 1010.71 1009.86 1009.03 1008.28 1007.63 1007.11 1006.72 1006.43 1006.23 1006.07 1005.93 1005.78 1005.60 1005.39 1005.14 1004.89 1004.65 1004.46 1004.36 1004.36 1004.50 1004.78 1005.19 1005.71 1006.29 1006.89 1007.48 1008.00 1008.44 1008.77 1009.00 1009.14 1009.21 1009.24 1009.26 1009.28 1009.32 1009.39 1009.47
1013.30 1013.02 1012.48 1011.72 1010.80 1009.82 1008.85 1007.96 1007.21 1006.64 1006.24 1006.01 1005.93 1005.93 1005.97 1006.01 1006.01 1005.94 1005.81 1005.63 1005.41 1005.20 1005.03 1004.93 1004.94 1005.08 1005.33 1005.69 1006.14 1006.63 1007.12 1007.60 1008.01 1008.35 1008.61 1008.79 1008.91 1008.98 1009.03 1009.08 1009.13 1009.19 1009.26 1009.32
1013.07 1012.61 1011.90 1011.00 1009.97 1008.90 1007.89 1007.01 1006.31 1005.82 1005.55 1005.48 1005.56 1005.74 1005.95 1006.14 1006.27 1006.33 1006.30 1006.19 1006.05 1005.89 1005.77 1005.71 1005.74 1005.88 1006.11 1006.42 1006.79 1007.19 1007.58 1007.94 1008.25 1008.50 1008.69 1008.83 1008.93 1009.01 1009.08 1009.15 1009.23 1009.30 1009.36 1009.41
1012.50 1011.91 1011.09 1010.12 1009.05 1007.98 1007.00 1006.18 1005.57 1005.20 1005.06 1005.12 1005.34 1005.65 1006.00 1006.31 1006.57 1006.73 1006.80 1006.80 1006.74 1006.66 1006.61 1006.60 1006.66 1006.80 1007.01 1007.28 1007.58 1007.89 1008.18 1008.44 1008.66 1008.83 1008.97 1009.07 1009.17 1009.25 1009.34 1009.43 1009.52 1009.60 1009.66 1009.67
1011.62 1010.95 1010.11 1009.14 1008.11 1007.12 1006.23 1005.52 1005.02 1004.77 1004.75 1004.92 1005.25 1005.66 1006.10 1006.52 1006.86 1007.12 1007.29 1007.38 1007.41 1007.42 1007.44 1007.49 1007.59 1007.74 1007.93 1008.16 1008.40 1008.63 1008.84 1009.02 1009.16 1009.28 1009.37 1009.45 1009.54 1009.63 1009.72 1009.82 1009.92 1009.99 1010.03 1010.02
1010.54 1009.87 1009.05 1008.15 1007.23 1006.36 1005.61 1005.04 1004.67 1004.53 1004.61 1004.87 1005.27 1005.74 1006.24 1006.72 1007.13 1007.46 1007.71 1007.89 1008.01 1008.10 1008.19 1008.30 1008.43 1008.59 1008.77 1008.96 1009.15 1009.32 1009.46 1009.58 1009.66 1009.73 1009.79 1009.86 1009.93 1010.01 1010.10 1010.20 1010.28 1010.34 1010.35 1010.32
1009.42 1008.78 1008.05 1007.27 1006.49 1005.78 1005.19 1004.76 1004.52 1004.48 1004.63 1004.94 1005.37 1005.87 1006.39 1006.90 1007.35 1007.73 1008.05 1008.29 1008.49 1008.66 1008.81 1008.96 1009.12 1009.29 1009.46 1009.62 1009.76 1009.88 1009.97 1010.04 1010.08 1010.11 1010.14 1010.18 1010.23 1010.30 1010.37 1010.44 1010.49 1010.52 1010.51 1010.45
1008.38 1007.83 1007.21 1006.57 1005.96 1005.41 1004.98 1004.68 1004.55 1004.58 1004.78 1005.11 1005.54 1006.03 1006.55 1007.06 1007.53 1007.94 1008.30 1008.61 1008.87 1009.09 1009.29 1009.48 1009.66 1009.82 1009.97 1010.10 1010.21 1010.28 1010.33 1010.36 1010.36 1010.36 1010.36 1010.37 1010.38 1010.41 1010.44 1010.47 1010.48 1010.47 1010.42 1010.34
1007.54 1007.08 1006.59 1006.11 1005.65 1005.26 1004.97 1004.79 1004.74 1004.82 1005.03 1005.35 1005.76 1006.23 1006.72 1007.21 1007.68 1008.12 1008.51 1008.86 1009.16 1009.43 1009.67 1009.87 1010.06 1010.21 1010.34 1010.44 1010.51 1010.54 1010.55 1010.53 1010.50 1010.46 1010.42 1010.39 1010.36 1010.33 1010.31 1010.28 1010.24 1010.18 1010.09 1009.97
1006.93 1006.57 1006.21 1005.86 1005.56 1005.31 1005.13 1005.04 1005.05 1005.16 1005.37 1005.67 1006.04 1006.47 1006.93 1007.40 1007.86 1008.31 1008.72 1009.09 1009.43 1009.72 1009.98 1010.19 1010.37 1010.50 1010.60 1010.66 1010.68 1010.68 1010.64 1010.58 1010.51 1010.43 1010.35 1010.27 1010.19 1010.11 1010.03 1009.93 1009.83 1009.71 1009.58 1009.44
1006.54 1006.27 1006.03 1005.82 1005.65 1005.52 1005.44 1005.43 1005.48 1005.60 1005.80 1006.07 1006.40 1006.79 1007.21 1007.66 1008.11 1008.55 1008.97 1009.36 1009.71 1010.01 1010.27 1010.47 1010.62 1010.73 1010.79 1010.81 1010.78 1010.73 1010.66 1010.56 1010.45 1010.33 1010.21 1010.08 1009.95 1009.82 1009.67 1009.52 1009.36 1009.19 1009.01 1008.84
1006.33 1006.15 1006.02 1005.93 1005.87 1005.85 1005.86 1005.90 1005.99 1006.13 1006.32 1006.56 1006.86 1007.21 1007.59 1008.01 1008.44 1008.87 1009.29 1009.68 1010.02 1010.32 1010.55 1010.73 1010.85 1010.92 1010.93 1010.90 1010.84 1010.74 1010.63 1010.50 1010.36 1010.21 1010.05 1009.89 1009.72 1009.53 1009.34 1009.14 1008.93 1008.72 1008.51 1008.30
1006.26 1006.18 1006.14 1006.16 1006.20 1006.27 1006.36 1006.46 1006.59 1006.74 1006.92 1007.15 1007.42 1007.73 1008.09 1008.47 1008.88 1009.29 1009.68 1010.05 1010.37 1010.64 1010.84 1010.98 1011.06 1011.07 1011.04 1010.97 1010.86 1010.73 1010.59 1010.43 1010.27 1010.11 1009.93 1009.75 1009.55 1009.35 1009.12 1008.90 1008.66 1008.42 1008.18 1007.95
1006.32 1006.31 1006.38 1006.49 1006.63 1006.79 1006.95 1007.11 1007.27 1007.43 1007.62 1007.83 1008.08 1008.36 1008.68 1009.03 1009.40 1009.77 1010.12 1010.45 1010.73 1010.95 1011.11 1011.20 1011.23 1011.20 1011.12 1011.01 1010.87 1010.72 1010.56 1010.40 1010.23 1010.06 1009.89 1009.71 1009.51 1009.30 1009.08 1008.84 1008.59 1008.34 1008.09 1007.85
1006.50 1006.58 1006.73 1006.93 1007.15 1007.39 1007.61 1007.82 1008.02 1008.21 1008.39 1008.59 1008.81 1009.06 1009.34 1009.64 1009.95 1010.27 1010.57 1010.84 1011.06 1011.23 1011.33 1011.37 1011.36 1011.29 1011.18 1011.04 1010.89 1010.73 1010.57 1010.42 1010.27 1010.12 1009.96 1009.80 1009.63 1009.43 1009.23 1009.00 1008.76 1008.52 1008.26 1008.01
1006.83 1006.98 1007.21 1007.49 1007.78 1008.08 1008.35 1008.60 1008.82 1009.02 1009.20 1009.38 1009.57 1009.78 1010.01 1010.25 1010.50 1010.75 1010.99 1011.19 1011.35 1011.46 1011.52 1011.52 1011.46 1011.37 1011.25 1011.10 1010.95 1010.81 1010.67 1010.54 1010.42 1010.30 1010.17 1010.05 1009.90 1009.74 1009.56 1009.36 1009.14 1008.90 1008.65 1008.39
1007.33 1007.55 1007.84 1008.17 1008.51 1008.84 1009.15 1009.42 1009.65 1009.84 1010.01 1010.16 1010.31 1010.47 1010.64 1010.82 1011.00 1011.18 1011.35 1011.50 1011.60 1011.67 1011.68 1011.66 1011.59 1011.49 1011.37 1011.24 1011.12 1011.00 1010.89 1010.79 1010.70 1010.62 1010.54 1010.44 1010.33 1010.21 1010.06 1009.88 1009.68 1009.46 1009.21 1008.94
1008.01 1008.27 1008.59 1008.95 1009.31 1009.65 1009.96 1010.23 1010.45 1010.62 1010.76 1010.88 1010.98 1011.09 1011.20 1011.31 1011.44 1011.56 1011.67 1011.77 1011.83 1011.87 1011.87 1011.85 1011.79 1011.71 1011.62 1011.52 1011.43 1011.35 1011.28 1011.22 1011.16 1011.11 1011.06 1010.99 1010.91 1010.80 1010.68 1010.52 1010.33 1010.11 1009.85 1009.57
1008.83 1009.11 1009.44 1009.79 1010.14 1010.47 1010.75 1010.99 1011.18 1011.32 1011.42 1011.50 1011.56 1011.61 1011.68 1011.74 1011.82 1011.90 1011.98 1012.05 1012.10 1012.14 1012.15 1012.15 1012.12 1012.08 1012.04 1011.99 1011.94 1011.90 1011.87 1011.84 1011.81 1011.78 1011.74 1011.68 1011.61 1011.51 1011.38 1011.22 1011.03 1010.80 1010.53 1010.22
1009.72 1010.00 1010.31 1010.63 1010.94 1011.23 1011.47 1011.67 1011.81 1011.91 1011.98 1012.02 1012.04 1012.07 1012.10 1012.13 1012.19 1012.25 1012.32 1012.39 1012.46 1012.52 1012.57 1012.61 1012.63 1012.65 1012.66 1012.66 1012.66 1012.65 1012.65 1012.64 1012.62 1012.59 1012.54 1012.48 1012.39 1012.27 1012.13 1011.95 1011.74 1011.48 1011.19 1010.84
1010.61 1010.86 1011.13 1011.41 1011.67 1011.90 1012.09 1012.24 1012.34 1012.41 1012.45 1012.46 1012.47 1012.48 1012.50 1012.54 1012.59 1012.66 1012.75 1012.85 1012.95 1013.06 1013.16 1013.25 1013.33 1013.41 1013.47 1013.52 1013.55 1013.57 1013.58 1013.57 1013.54 1013.49 1013.42 1013.33 1013.21 1013.05 1012.87 1012.66 1012.41 1012.12 1011.78 1011.40
1011.43 1011.64 1011.87 1012.08 1012.29 1012.46 1012.61 1012.71 1012.79 1012.84 1012.87 1012.88 1012.90 1012.92 1012.96 1013.01 1013.09 1013.19 1013.32 1013.45 1013.60 1013.75 1013.90 1014.05 1014.19 1014.31 1014.41 1014.49 1014.55 1014.58 1014.59 1014.56 1014.51 1014.43 1014.31 1014.17 1014.00 1013.80 1013.57 1013.30 1013.00 1012.67 1012.28 1011.85
1012.13 1012.30 1012.48 1012.65 1012.80 1012.93 1013.05 1013.13 1013.20 1013.25 1013.30 1013.33 1013.38 1013.43 1013.51 1013.60 1013.72 1013.86 1014.02 1014.19 1014.38 1014.57 1014.76 1014.95 1015.12 1015.27 1015.39 1015.49 1015.55 1015.58 1015.56 1015.51 1015.42 1015.29 1015.13 1014.93 1014.70 1014.45 1014.16 1013.84 1013.49 1013.10 1012.66 1012.18
Thickness
5753 5761 5762 5762 5762 5759 5755 5751 5743 5751 5754 5770 5778 5781 5783 5784 5783 5781 5780 5778 5777 5775 5773 5771 5769 5767 5765 5763 5761 5758 5753 5750 5747 5744 5742 5739 5736 5734 5731 5729 5728 5725 5722 5720
5747 5756 5757 5755 5759 5760 5759 5758 5753 5756 5759 5776 5779 5779 5779 5778 5778 5776 5775 5775 5775 5774 5771 5768 5767 5764 5762 5758 5756 5753 5749 5746 5743 5740 5737 5734 5731 5729 5726 5724 5722 5719 5716 5713
5725 5740 5744 5736 5752 5756 5757 5760 5757 5752 5763 5772 5771 5773 5775 5775 5773 5772 5772 5772 5771 5770 5768 5766 5764 5762 5758 5755 5752 5748 5744 5741 5739 5736 5733 5729 5726 5723 5720 5717 5715 5712 5709 5706
5710 5722 5713 5739 5761 5761 5757 5757 5759 5760 5764 5766 5768 5771 5774 5774 5771 5770 5770 5768 5767 5766 5765 5763 5760 5758 5755 5750 5746 5742 5739 5736 5733 5731 5727 5724 5720 5716 5713 5711 5708 5704 5702 5699
5695 5699 5711 5735 5751 5751 5746 5746 5755 5754 5757 5759 5762 5762 5764 5770 5769 5767 5767 5766 5765 5763 5761 5757 5754 5751 5747 5743 5739 5736 5733 5730 5728 5725 5721 5717 5713 5710 5707 5704 5700 5697 5693 5690
5689 5693 5695 5725 5750 5756 5747 5734 5751 5751 5749 5749 5750 5740 5750 5763 5763 5761 5761 5761 5759 5757 5754 5750 5747 5745 5740 5735 5732 5729 5727 5724 5722 5718 5714 5711 5707 5703 5699 5696 5692 5689 5685 5681
5685 5688 5701 5728 5742 5745 5720 5726 5747 5746 5744 5742 5739 5742 5749 5754 5754 5754 5754 5754 5752 5749 5746 5744 5741 5737 5732 5728 5725 5724 5721 5717 5714 5711 5707 5704 5699 5695 5691 5686 5682 5679 5675 5673
5675 5680 5693 5726 5729 5724 5725 5738 5739 5739 5739 5737 5737 5739 5742 5745 5745 5746 5745 5744 5743 5739 5737 5736 5733 5729 5724 5721 5720 5716 5712 5708 5705 5702 5699 5695 5690 5686 5682 5677 5673 5670 5667 5664
5683 5691 5708 5716 5720 5727 5728 5728 5730 5731 5732 5731 5729 5729 5732 5733 5735 5735 5735 5734 5733 5731 5728 5726 5724 5722 5716 5715 5712 5708 5703 5698 5694 5692 5689 5685 5681 5676 5673 5669 5665 5662 5658 5655
5680 5694 5704 5710 5715 5720 5722 5723 5724 5725 5725 5724 5721 5721 5721 5722 5723 5723 5723 5722 5721 5719 5716 5714 5713 5712 5709 5706 5703 5698 5694 5689 5685 5681 5678 5674 5671 5667 5664 5659 5656 5653 5650 5648
5676 5688 5696 5704 5707 5710 5713 5715 5716 5716 5716 5716 5713 5711 5711 5710 5711 5712 5711 5710 5709 5707 5705 5703 5702 5700 5698 5694 5691 5686 5683 5679 5674 5670 5666 5663 5660 5656 5654 5652 5650 5647 5644 5641
5672 5683 5682 5691 5700 5702 5702 5703 5705 5704 5704 5705 5704 5702 5701 5700 5701 5701 5701 5699 5697 5696 5695 5693 5691 5689 5688 5685 5682 5676 5671 5667 5664 5662 5658 5653 5649 5646 5644 5643 5641 5639 5636 5632
5676 5681 5681 5687 5691 5694 5694 5695 5696 5696 5695 5694 5694 5694 5692 5691 5692 5691 5690 5689 5688 5687 5686 5684 5681 5679 5678 5677 5674 5669 5663 5659 5656 5653 5649 5645 5641 5639 5636 5633 5631 5628 5626 5622
5674 5675 5675 5680 5682 5685 5685 5686 5686 5687 5687 5687 5686 5684 5683 5683 5682 5681 5680 5680 5679 5677 5675 5673 5670 5669 5668 5666 5663 5660 5656 5651 5647 5643 5640 5638 5635 5632 5629 5626 5622 5619 5615 5612
5670 5670 5670 5672 5672 5674 5675 5675 5674 5674 5675 5675 5674 5674 5673 5671 5670 5670 5670 5670 5669 5666 5665 5662 5660 5658 5658 5656 5653 5650 5647 5642 5639 5635 5632 5629 5626 5623 5620 5617 5614 5610 5606 5603
5661 5662 5663 5663 5662 5663 5664 5665 5665 5665 5665 5665 5665 5665 5664 5663 5661 5660 5659 5658 5657 5655 5654 5652 5650 5648 5647 5645 5642 5639 5636 5634 5631 5628 5624 5620 5617 5613 5610 5607 5603 5600 5597 5593
5651 5651 5652 5652 5652 5652 5654 5656 5657 5658 5657 5657 5657 5657 5655 5653 5652 5649 5648 5647 5647 5646 5644 5642 5640 5639 5638 5635 5632 5629 5627 5624 5622 5619 5615 5611 5608 5605 5602 5598 5594 5591 5588 5585
5651 5652 5652 5650 5648 5647 5647 5648 5649 5649 5649 5649 5649 5647 5645 5643 5641 5640 5639 5637 5636 5635 5633 5632 5631 5629 5627 5625 5623 5620 5617 5614 5612 5609 5606 5602 5599 5596 5593 5589 5587 5584 5581 5578
5646 5646 5646 5645 5644 5643 5641 5641 5641 5641 5641 5640 5638 5636 5635 5634 5632 5631 5629 5627 5625 5624 5623 5623 5622 5620 5618 5616 5614 5611 5608 5606 5603 5600 5597 5593 5590 5587 5584 5581 5578 5576 5573 5569
5638 5639 5639 5639 5639 5637 5635 5634 5634 5633 5632 5631 5629 5627 5626 5624 5623 5621 5619 5616 5616 5615 5615 5614 5613 5611 5609 5607 5605 5602 5600 5598 5595 5591 5588 5585 5582 5579 5576 5573 5570 5567 5564 5561
5628 5630 5631 5631 5630 5630 5629 5627 5626 5624 5623 5623 5621 5619 5617 5615 5614 5612 5609 5608 5609 5608 5607 5606 5604 5602 5601 5599 5597 5594 5592 5589 5586 5583 5580 5577 5574 5571 5567 5564 5562 5558 5555 5552
5620 5621 5622 5622 5621 5620 5619 5619 5618 5617 5615 5614 5613 5612 5609 5607 5606 5604 5603 5601 5602 5601 5599 5598 5596 5595 5593 5591 5588 5586 5584 5581 5579 5576 5573 5569 5566 5562 5559 5556 5553 5549 5546 5543
5612 5613 5614 5613 5612 5612 5611 5611 5610 5609 5607 5606 5605 5604 5602 5600 5599 5597 5595 5595 5595 5594 5592 5591 5589 5588 5585 5583 5580 5578 5576 5573 5570 5568 5565 5561 5558 5555 5551 5548 5545 5541 5538 5536
5604 5605 5605 5605 5605 5604 5603 5603 5602 5601 5600 5599 5599 5598 5596 5594 5592 5592 5591 5590 5588 5587 5585 5583 5582 5580 5578 5575 5572 5570 5568 5566 5563 5560 5557 5554 5550 5547 5544 5541 5538 5535 5531 5529
5598 5598 5598 5598 5598 5597 5597 5596 5595 5594 5593 5593 5592 5591 5590 5589 5587 5586 5585 5583 5582 5580 5578 5576 5574 5572 5570 5568 5566 5564 5562 5559 5556 5554 5551 5548 5544 5541 5538 5535 5532 5529 5525 5522
5593 5593 5593 5594 5593 5592 5591 5590 5588 5588 5587 5585 5585 5584 5583 5582 5581 5579 5578 5576 5574 5572 5570 5568 5566 5564 5563 5561 5559 5557 5555 5552 5550 5547 5544 5541 5538 5535 5532 5529 5526 5523 5519 5517
5588 5587 5586 5586 5586 5586 5586 5584 5582 5581 5580 5579 5577 5576 5575 5575 5574 5572 5570 5568 5566 5564 5562 5560 5559 5557 5556 5554 5552 5550 5548 5546 5543 5541 5538 5535 5532 5529 5526 5523 5520 5517 5514 5511